SCP
-0 0 0 0 0 0 0 0 0 0 0 0 0 0 0 0 0 1 0 0 -0 -0 -0 -0 -0 -0 -0 -0 -0 -0 -0 -0 -0 -0 -0 -0 0 0 -0 0 0 0 0 0 0 -0 -0 0 0
0 0 0 0 0 0 0 0 0 0 0 0 0 0 0 0 0 0 0 0 0 -0 -0 -0 -0 -0 -0 -0 -0 -0 -0 -0 -0 -0 -0 0 0 0 0 -0 0 -0 0 0 0 -0 -0 -0 -0
0 0 0 0 0 0 0 0 0 0 0 0 0 0 0 0 0 0 0 0 0 0 0 -0 0 0 -0 -0 -0 -0 -0 -0 -0 -0 0 0 0 0 0 -0 -0 0 0 0 -0 -0 -0 -0 -0
0 0 0 0 0 0 0 0 0 0 0 0 0 0 0 0 0 0 0 0 0 0 0 0 0 0 0 0 0 0 0 0 0 0 0 0 0 0 0 0 0 0 0 0 -0 -0 -0 0 0
0 0 0 0 0 0 0 0 0 0 0 0 0 0 0 0 0 0 0 0 0 0 0 0 0 0 0 0 0 0 0 0 0 0 -0 -0 -0 -0 -0 0 0 0 -0 0 0 0 0 0 0
0 0 0 0 0 0 0 0 0 0 0 0 0 0 0 0 0 0 0 0 -0 0 0 1 1 1 1 0 0 0 0 0 0 0 0 -0 -0 -0 -0 -0 -0 -0 0 0 0 0 0 0 0
0 0 0 0 0 0 0 0 0 0 0 0 0 0 0 0 0 0 0 0 0 0 0 1 0 1 1 1 1 1 1 0 0 0 0 -0 -0 -0 -0 -0 -0 0 0 0 0 0 -0 -0 -0
0 0 0 0 0 0 0 0 0 0 0 0 0 0 0 0 0 0 0 0 0 0 0 0 0 0 0 0 1 1 1 1 0 0 0 0 -0 -0 -0 -0 -0 0 0 0 0 0 0 0 -0
0 0 0 0 0 0 0 0 0 0 0 0 0 0 0 0 0 0 0 0 0 0 0 0 0 0 0 0 0 1 0 0 1 0 0 0 -0 -0 -0 -0 0 0 0 0 0 0 0 0 0
0 0 0 0 0 0 0 0 0 0 0 0 0 0 0 0 0 0 0 0 0 0 0 0 0 0 0 0 0 0 0 0 0 0 0 0 -0 -0 -0 0 0 0 0 0 0 0 0 0 -0
0 0 0 0 0 0 0 0 0 0 0 0 0 0 0 0 0 0 0 0 0 0 0 0 1 1 0 0 0 0 0 0 0 0 0 0 0 0 0 0 0 0 0 0 0 0 0 0 0
0 0 0 0 0 0 0 0 0 0 0 0 0 0 0 0 0 0 0 0 0 0 0 0 1 2 2 0 1 1 0 0 0 0 1 1 1 1 1 0 0 0 0 0 0 0 0 0 0
0 0 0 0 0 0 0 0 0 0 0 0 0 0 0 0 0 0 0 0 0 0 1 1 1 2 3 1 1 1 1 1 1 1 1 1 1 2 1 1 0 0 0 0 0 0 0 0 0
0 0 0 0 0 0 0 0 0 0 0 0 0 0 0 0 0 0 0 0 0 1 1 1 1 3 2 3 2 3 2 1 1 1 1 2 3 4 1 1 1 0 0 0 0 0 0 0 0
0 0 0 0 0 0 0 0 0 0 0 0 0 0 0 0 0 0 0 0 0 0 1 1 1 1 2 2 2 2 1 1 1 1 4 3 4 5 3 2 2 1 2 1 1 0 0 0 0
0 0 0 0 0 0 0 0 -0 0 0 0 0 0 0 0 0 0 0 0 0 0 0 0 1 1 2 2 2 2 1 2 1 2 3 5 4 4 5 2 1 2 2 2 1 0 0 0 0
0 0 0 0 0 0 0 0 -0 0 0 0 0 0 0 0 0 0 0 0 0 0 0 0 0 1 2 2 1 2 2 2 2 2 3 4 4 4 7 4 3 3 2 3 1 1 1 1 1
0 0 0 0 0 0 0 0 0 0 0 0 0 0 0 0 0 0 0 0 0 0 0 0 0 1 3 2 3 2 2 3 3 3 3 4 4 4 4 4 6 6 4 3 2 4 3 2 2
0 0 0 0 0 0 0 0 0 0 0 0 0 0 0 0 0 0 0 0 0 0 0 0 0 0 1 1 2 2 2 2 3 3 5 5 6 3 3 4 8 6 9 7 4 4 8 5 4
0 0 0 0 0 0 0 0 0 0 0 0 0 0 0 0 0 0 0 0 0 0 0 0 0 0 1 1 3 3 4 4 4 3 5 5 5 5 4 4 6 6 7 7 5 6 3 4 5
0 0 0 0 0 0 0 0 0 0 0 0 0 0 0 0 0 0 0 0 0 0 0 0 0 0 1 1 3 5 4 7 4 4 5 5 5 5 5 5 5 8 10 8 11 9 6 4 4
0 0 0 0 0 0 0 0 0 0 0 0 0 0 0 0 0 0 0 0 0 0 0 0 0 0 0 1 1 3 4 4 4 4 4 6 5 4 5 5 6 8 7 6 10 10 9 10 7
0 0 0 0 0 0 0 0 0 0 0 0 0 0 0 0 0 0 0 0 0 0 0 0 0 0 0 1 2 1 2 2 3 4 4 7 9 6 3 6 7 8 9 8 9 8 8 5 6
0 0 0 0 0 0 0 0 0 0 0 0 0 0 0 0 0 0 0 0 0 0 0 0 0 0 0 0 1 2 3 3 4 5 5 5 6 10 8 5 9 10 11 11 9 10 8 7 5
0 0 0 0 0 0 0 0 0 0 0 0 0 0 0 0 0 0 0 0 0 0 0 0 0 0 0 0 0 1 2 3 4 5 5 5 5 7 12 8 10 12 11 8 7 8 8 9 6
0 0 0 0 0 0 0 0 0 0 0 0 0 0 0 0 0 0 0 0 0 0 0 0 0 0 0 0 0 0 1 1 1 3 4 4 5 5 10 15 12 8 8 6 7 7 7 6 4
0 0 0 0 0 0 0 0 0 0 0 0 0 0 0 0 0 0 0 0 0 0 0 0 0 0 0 0 0 0 0 1 1 3 6 6 6 6 5 11 11 10 9 8 6 6 6 6 5
0 0 0 0 0 0 0 0 0 0 0 0 0 0 0 0 0 0 0 0 0 0 0 0 0 0 0 0 0 0 1 0 1 3 5 7 7 8 10 10 10 9 6 4 6 5 5 5 6
0 0 0 0 0 0 0 0 0 0 0 0 0 0 0 0 0 0 0 0 0 0 0 0 0 0 0 0 0 0 1 1 3 2 3 5 7 7 4 5 6 4 4 6 6 5 4 4 5
0 0 0 0 0 0 0 0 0 0 0 0 0 0 0 0 0 0 0 0 0 0 0 0 0 0 0 0 0 0 0 1 1 2 3 2 5 5 4 4 3 3 3 6 5 4 3 3 4
Wind_Speed_500mb
17 24 21 25 15 17 34 29 4 6 19 6 5 19 26 26 29 11 15 17 32 33 36 38 40 43 43 40 36 34 33 31 29 25 22 23 24 24 25 24 22 19 16 14 13 13 13 15 15
23 24 23 28 18 29 26 7 17 9 11 7 5 9 12 28 22 18 23 22 30 30 37 39 42 42 43 42 38 36 36 34 31 26 22 22 24 24 24 23 21 18 16 14 13 13 13 13 13
22 21 27 23 28 32 21 3 13 10 7 1 5 7 11 21 9 10 16 23 30 28 34 39 42 42 41 41 39 38 39 38 34 28 22 21 23 24 23 22 20 18 17 15 14 13 12 11 10
21 29 27 21 36 34 16 18 15 10 11 1 1 12 17 10 5 7 20 22 26 26 30 33 39 41 41 38 35 37 41 42 38 32 25 22 23 24 23 22 20 18 16 14 13 13 11 9 7
22 31 26 32 40 40 10 11 4 14 6 3 11 11 12 17 17 18 19 19 21 26 29 28 40 39 39 37 35 35 39 44 42 37 30 25 25 25 24 23 20 17 15 14 13 12 10 7 5
31 33 29 34 41 37 12 23 20 23 5 4 14 5 15 17 15 14 15 16 19 26 29 26 39 40 39 36 34 34 38 42 43 39 33 29 29 28 26 24 21 19 17 15 13 11 9 6 4
30 24 34 42 39 36 31 34 24 25 26 11 4 18 22 20 8 8 10 13 20 26 29 26 37 39 39 38 35 35 38 43 44 41 38 33 32 31 30 27 24 21 19 17 15 12 10 8 6
37 23 40 36 35 40 13 31 26 32 21 6 7 16 9 19 7 7 12 13 19 23 26 25 36 41 43 43 40 38 40 44 47 46 43 39 36 36 34 31 28 25 23 20 17 14 12 11 10
27 24 28 39 30 30 34 25 28 20 19 24 26 27 26 9 9 13 18 19 20 22 25 24 30 35 38 37 44 44 43 45 48 50 50 45 39 38 38 34 32 29 26 24 21 18 15 13 12
26 25 38 30 17 19 27 18 30 18 29 35 38 35 33 21 18 18 25 27 26 26 28 27 29 33 35 34 35 46 47 49 52 54 56 52 43 32 30 30 35 31 30 28 25 22 19 16 12
35 35 27 17 11 25 25 23 28 30 34 39 38 34 34 27 27 27 31 34 34 33 30 32 35 38 36 34 34 33 39 42 49 53 54 53 38 34 33 31 41 38 34 30 26 26 22 17 14
35 36 38 28 16 22 26 33 36 33 32 37 31 25 29 35 37 37 36 44 42 44 38 36 37 43 44 36 38 34 39 41 42 46 56 48 52 44 38 36 24 34 33 35 24 17 18 20 22
32 35 26 32 30 29 29 31 33 35 34 27 32 32 33 33 36 36 36 34 33 46 37 38 38 42 47 55 41 44 44 46 42 42 50 55 48 48 46 39 36 31 28 26 27 25 24 20 21
23 35 36 26 32 33 32 34 35 37 26 32 29 31 33 35 36 35 32 26 33 30 27 35 40 45 46 47 55 50 49 43 45 44 47 60 55 50 46 51 43 38 34 31 29 27 24 20 17
27 24 28 34 36 32 30 36 39 43 31 34 28 33 30 31 31 34 31 29 29 31 31 30 37 39 44 42 41 57 45 48 47 50 53 61 69 67 67 55 51 43 40 40 36 33 32 29 22
28 33 32 35 40 36 20 33 27 28 23 33 33 34 28 30 35 37 35 28 28 27 28 27 33 36 43 41 40 41 48 47 49 53 57 65 66 71 72 48 48 55 51 47 39 33 30 25 21
30 27 35 29 25 18 25 26 28 15 22 25 26 28 31 30 26 29 32 30 27 28 29 27 29 35 39 42 40 42 46 52 54 56 59 67 72 73 75 65 56 47 47 54 50 44 38 34 30
30 36 28 28 18 17 31 32 29 23 29 33 30 34 33 32 31 29 26 24 19 16 19 25 30 34 38 42 44 42 46 54 58 60 60 59 65 65 73 66 61 60 60 52 53 59 55 52 39
35 27 26 15 18 15 26 32 33 30 29 34 35 36 39 40 34 32 29 25 23 19 19 23 27 36 46 41 45 47 48 49 53 56 59 59 64 60 60 72 75 73 87 79 75 55 54 48 39
27 31 33 30 28 23 33 34 33 33 36 42 41 42 40 38 36 34 31 13 15 24 22 20 23 26 33 35 49 56 53 54 53 52 55 59 62 63 54 62 64 83 83 83 68 61 55 52 40
33 33 33 33 23 23 30 38 42 40 55 52 44 45 41 38 37 32 11 15 20 22 24 23 24 25 30 33 40 50 52 58 55 56 55 56 61 62 61 60 66 65 75 66 74 70 62 43 38
34 32 33 30 28 28 33 29 27 26 24 28 37 37 39 27 8 7 11 18 19 22 20 23 26 29 30 32 34 49 57 61 65 66 61 61 61 61 61 65 64 74 65 64 72 65 62 60 47
31 29 29 31 30 34 37 24 31 33 33 26 21 27 14 7 3 12 15 18 23 23 23 23 25 29 32 34 39 41 49 62 64 65 65 64 58 64 61 66 70 70 72 62 61 58 58 53 62
22 20 28 32 32 34 41 36 34 32 32 24 27 12 21 11 12 17 18 24 29 28 30 28 29 31 31 33 37 44 54 60 56 63 66 65 65 67 70 63 71 75 74 69 70 64 67 74 63
30 27 24 31 30 34 38 33 30 13 14 14 7 9 6 12 19 19 21 28 31 35 36 37 35 36 37 38 40 44 50 58 65 71 63 64 68 69 73 68 74 76 80 73 76 67 70 73 65
38 35 27 35 32 36 38 22 18 12 9 16 9 14 16 20 15 20 27 31 35 35 38 39 37 38 39 41 43 43 47 49 56 60 67 70 71 71 67 79 77 80 74 70 68 59 62 58 62
27 33 33 38 42 36 38 51 46 30 35 27 31 16 20 16 19 30 36 37 34 34 35 35 36 34 34 38 41 41 42 46 55 62 62 67 77 69 77 80 79 83 78 72 64 57 57 55 57
36 30 21 20 22 39 30 34 14 19 9 12 15 22 23 17 29 40 43 42 37 34 30 28 27 32 34 34 35 36 34 38 44 50 60 63 67 74 62 81 72 80 74 64 59 61 59 57 59
24 32 34 35 33 21 29 24 23 8 8 19 13 23 23 32 35 43 42 36 35 31 28 26 26 27 29 31 33 34 32 28 27 40 48 54 67 75 83 47 61 64 60 56 59 54 49 49 54
40 42 35 21 22 27 25 27 29 27 32 26 16 30 39 32 35 40 36 35 35 35 31 33 31 31 30 31 33 29 27 25 28 31 34 37 41 42 45 45 44 47 46 46 47 43 44 45 44
Wind_Direction_500mb
314 314 304 272 246 232 255 233 55 179 206 39 309 314 4 19 7 38 128 125 144 155 158 164 169 172 178 181 184 184 183 176 172 163 156 154 157 156 156 157 159 157 153 147 140 136 136 129 129
301 309 286 267 249 247 226 159 186 85 24 249 219 247 229 78 35 93 128 137 146 156 161 168 171 175 179 185 189 192 192 187 183 176 168 165 166 166 168 166 166 162 159 154 146 144 139 134 132
301 278 281 243 239 253 275 84 90 122 198 238 211 318 33 54 64 86 114 138 152 156 162 175 175 177 182 186 189 197 199 195 191 187 183 179 179 177 177 173 172 170 168 161 154 152 148 145 138
274 251 242 256 252 238 287 226 100 222 167 345 329 99 114 61 51 74 137 140 158 162 168 178 180 181 181 185 189 199 199 200 197 195 194 194 195 192 187 184 181 178 176 166 166 165 163 160 148
250 257 253 242 243 259 257 355 164 261 13 70 302 104 107 81 90 113 132 147 162 168 175 193 184 185 186 185 186 193 203 201 202 202 202 203 205 203 198 195 189 190 186 182 181 176 175 172 168
243 237 239 239 240 248 197 256 230 260 212 260 250 217 110 113 100 116 140 151 165 174 177 205 189 189 191 192 190 189 198 206 207 210 213 212 212 210 205 203 199 201 201 198 197 190 183 185 202
251 235 243 254 252 235 201 238 256 261 251 246 82 260 116 122 83 145 160 166 171 176 176 197 194 195 198 199 199 197 199 209 212 218 220 221 223 216 211 208 207 212 216 215 210 205 209 216 223
232 248 265 255 255 252 192 233 243 246 255 315 237 237 205 63 351 209 194 187 181 183 181 185 191 200 202 203 204 207 207 210 216 220 225 227 228 226 219 214 212 212 219 224 224 224 225 235 250
228 255 239 241 248 254 268 246 240 240 273 253 247 265 288 331 318 228 210 204 199 197 194 191 194 199 199 205 210 208 212 214 217 221 225 227 229 232 230 221 219 217 223 227 229 231 237 251 265
224 227 244 260 295 273 269 213 248 220 243 253 250 247 258 264 267 251 220 221 212 211 209 205 197 202 200 204 217 216 214 213 216 221 226 224 220 215 220 234 232 228 225 230 237 241 248 253 273
218 247 247 250 246 269 285 273 254 255 257 257 256 255 251 246 247 250 242 235 223 218 217 212 204 204 201 202 214 214 209 214 218 217 220 221 213 211 216 222 234 230 230 236 243 250 252 260 258
236 242 258 273 255 247 248 248 254 255 265 271 268 261 253 254 253 249 240 242 237 216 213 215 214 204 209 205 213 220 208 215 210 215 218 208 205 210 209 210 222 233 225 230 220 245 245 249 256
223 256 235 255 254 249 264 257 256 255 246 256 258 248 249 250 247 247 248 244 249 231 209 218 217 218 216 201 214 214 212 219 215 216 220 210 209 206 211 210 205 221 212 229 212 221 229 251 273
221 242 258 243 248 241 248 256 248 244 249 245 240 237 248 245 241 246 242 239 240 237 222 218 223 224 231 231 204 225 216 215 218 216 219 227 213 217 214 210 209 210 210 216 221 222 230 255 256
260 252 240 239 243 245 246 257 251 246 235 240 242 246 242 247 243 240 243 236 229 231 230 226 227 226 226 229 234 216 225 220 222 218 224 233 223 215 224 221 217 211 214 211 218 220 235 243 251
240 240 252 240 216 228 226 259 256 210 214 231 237 238 235 240 239 240 238 245 243 238 230 232 227 226 229 234 232 229 229 227 225 227 221 230 236 224 229 218 229 229 226 234 228 230 236 232 236
224 252 229 243 172 247 199 260 225 169 223 233 240 239 237 238 231 242 244 247 251 250 248 242 233 233 234 247 238 238 232 232 230 225 229 236 233 231 226 223 229 230 237 241 238 249 234 231 224
229 218 234 260 187 206 251 242 261 209 238 249 240 244 244 242 243 236 235 254 275 299 282 267 258 239 228 237 248 240 241 236 232 231 229 230 240 231 226 223 211 237 255 252 250 237 228 233 224
287 279 289 275 238 253 267 273 268 253 253 257 250 249 246 248 248 248 248 245 272 295 299 293 281 275 263 243 243 244 244 242 237 234 232 229 233 232 233 223 219 217 234 239 237 219 216 229 218
258 257 259 260 262 254 266 265 268 258 247 251 252 251 248 248 249 252 243 227 267 282 286 288 283 272 265 252 247 241 243 242 239 237 235 231 229 236 236 224 223 229 232 227 225 231 236 229 219
245 254 263 260 273 223 256 264 254 250 244 247 250 254 255 257 259 255 242 271 269 273 281 291 296 289 277 263 243 246 244 241 240 237 237 234 231 231 231 227 217 226 226 225 231 233 233 224 215
246 240 244 259 259 260 255 278 267 273 265 223 224 238 251 262 198 235 268 268 276 283 289 297 299 298 291 287 262 241 243 241 239 240 239 235 236 228 230 226 228 215 227 219 234 228 234 227 213
256 270 276 273 265 270 262 260 264 254 241 230 242 237 226 53 266 257 265 279 285 291 299 301 304 305 299 284 264 257 253 247 246 245 244 238 235 242 230 228 222 226 219 222 212 224 220 220 224
278 258 257 256 257 254 256 256 264 259 258 227 206 184 242 206 266 265 274 287 290 296 300 300 302 302 301 298 284 270 259 243 246 248 243 241 234 233 243 227 228 223 226 216 214 220 233 239 234
223 243 261 254 240 250 248 241 249 290 306 273 218 275 138 204 256 271 282 293 300 298 300 299 298 297 296 295 289 281 273 268 256 243 247 245 238 228 226 234 225 224 228 213 224 227 229 233 228
248 246 257 272 275 285 294 264 279 303 323 252 242 280 264 242 270 296 291 295 298 299 301 301 298 296 294 291 290 284 272 268 262 261 247 246 246 239 234 234 230 222 224 226 226 220 224 226 232
270 256 277 296 281 274 274 280 278 240 191 218 245 212 231 259 291 292 296 299 299 301 301 301 296 297 299 296 295 292 282 268 258 247 249 249 237 241 240 234 229 225 221 226 230 227 229 228 238
271 294 292 266 274 262 258 272 289 352 290 262 248 226 233 259 284 296 300 294 296 299 304 308 303 292 295 302 300 299 289 284 274 264 250 241 237 236 245 231 226 223 225 225 222 224 227 232 233
239 239 239 244 253 261 279 273 301 301 251 288 214 231 256 267 293 302 294 291 293 295 302 309 308 301 297 298 304 307 298 277 278 267 258 247 241 235 229 235 225 222 222 218 220 220 225 237 240
260 268 248 260 265 265 277 270 290 287 269 261 279 274 267 294 299 285 287 293 291 291 295 301 305 306 304 302 299 297 310 294 282 279 257 241 220 213 207 209 205 206 207 207 209 213 222 231 236
Wind_Speed_850mb
17 24 21 25 15 17 34 29 4 6 19 6 5 19 26 26 29 11 15 17 32 33 36 38 40 43 43 40 36 34 33 31 29 25 22 23 24 24 25 24 22 19 16 14 13 13 13 15 15
23 24 23 28 18 29 26 7 17 9 11 7 5 9 12 28 22 18 23 22 30 30 37 39 42 42 43 42 38 36 36 34 31 26 22 22 24 24 24 23 21 18 16 14 13 13 13 13 13
22 21 27 23 28 32 21 3 13 10 7 1 5 7 11 21 9 10 16 23 30 28 34 39 42 42 41 41 39 38 39 38 34 28 22 21 23 24 23 22 20 18 17 15 14 13 12 11 10
21 29 27 21 36 34 16 18 15 10 11 1 1 12 17 10 5 7 20 22 26 26 30 33 39 41 41 38 35 37 41 42 38 32 25 22 23 24 23 22 20 18 16 14 13 13 11 9 7
22 31 26 32 40 40 10 11 4 14 6 3 11 11 12 17 17 18 19 19 21 26 29 28 40 39 39 37 35 35 39 44 42 37 30 25 25 25 24 23 20 17 15 14 13 12 10 7 5
31 33 29 34 41 37 12 23 20 23 5 4 14 5 15 17 15 14 15 16 19 26 29 26 39 40 39 36 34 34 38 42 43 39 33 29 29 28 26 24 21 19 17 15 13 11 9 6 4
30 24 34 42 39 36 31 34 24 25 26 11 4 18 22 20 8 8 10 13 20 26 29 26 37 39 39 38 35 35 38 43 44 41 38 33 32 31 30 27 24 21 19 17 15 12 10 8 6
37 23 40 36 35 40 13 31 26 32 21 6 7 16 9 19 7 7 12 13 19 23 26 25 36 41 43 43 40 38 40 44 47 46 43 39 36 36 34 31 28 25 23 20 17 14 12 11 10
27 24 28 39 30 30 34 25 28 20 19 24 26 27 26 9 9 13 18 19 20 22 25 24 30 35 38 37 44 44 43 45 48 50 50 45 39 38 38 34 32 29 26 24 21 18 15 13 12
26 25 38 30 17 19 27 18 30 18 29 35 38 35 33 21 18 18 25 27 26 26 28 27 29 33 35 34 35 46 47 49 52 54 56 52 43 32 30 30 35 31 30 28 25 22 19 16 12
35 35 27 17 11 25 25 23 28 30 34 39 38 34 34 27 27 27 31 34 34 33 30 32 35 38 36 34 34 33 39 42 49 53 54 53 38 34 33 31 41 38 34 30 26 26 22 17 14
35 36 38 28 16 22 26 33 36 33 32 37 31 25 29 35 37 37 36 44 42 44 38 36 37 43 44 36 38 34 39 41 42 46 56 48 52 44 38 36 24 34 33 35 24 17 18 20 22
32 35 26 32 30 29 29 31 33 35 34 27 32 32 33 33 36 36 36 34 33 46 37 38 38 42 47 55 41 44 44 46 42 42 50 55 48 48 46 39 36 31 28 26 27 25 24 20 21
23 35 36 26 32 33 32 34 35 37 26 32 29 31 33 35 36 35 32 26 33 30 27 35 40 45 46 47 55 50 49 43 45 44 47 60 55 50 46 51 43 38 34 31 29 27 24 20 17
27 24 28 34 36 32 30 36 39 43 31 34 28 33 30 31 31 34 31 29 29 31 31 30 37 39 44 42 41 57 45 48 47 50 53 61 69 67 67 55 51 43 40 40 36 33 32 29 22
28 33 32 35 40 36 20 33 27 28 23 33 33 34 28 30 35 37 35 28 28 27 28 27 33 36 43 41 40 41 48 47 49 53 57 65 66 71 72 48 48 55 51 47 39 33 30 25 21
30 27 35 29 25 18 25 26 28 15 22 25 26 28 31 30 26 29 32 30 27 28 29 27 29 35 39 42 40 42 46 52 54 56 59 67 72 73 75 65 56 47 47 54 50 44 38 34 30
30 36 28 28 18 17 31 32 29 23 29 33 30 34 33 32 31 29 26 24 19 16 19 25 30 34 38 42 44 42 46 54 58 60 60 59 65 65 73 66 61 60 60 52 53 59 55 52 39
35 27 26 15 18 15 26 32 33 30 29 34 35 36 39 40 34 32 29 25 23 19 19 23 27 36 46 41 45 47 48 49 53 56 59 59 64 60 60 72 75 73 87 79 75 55 54 48 39
27 31 33 30 28 23 33 34 33 33 36 42 41 42 40 38 36 34 31 13 15 24 22 20 23 26 33 35 49 56 53 54 53 52 55 59 62 63 54 62 64 83 83 83 68 61 55 52 40
33 33 33 33 23 23 30 38 42 40 55 52 44 45 41 38 37 32 11 15 20 22 24 23 24 25 30 33 40 50 52 58 55 56 55 56 61 62 61 60 66 65 75 66 74 70 62 43 38
34 32 33 30 28 28 33 29 27 26 24 28 37 37 39 27 8 7 11 18 19 22 20 23 26 29 30 32 34 49 57 61 65 66 61 61 61 61 61 65 64 74 65 64 72 65 62 60 47
31 29 29 31 30 34 37 24 31 33 33 26 21 27 14 7 3 12 15 18 23 23 23 23 25 29 32 34 39 41 49 62 64 65 65 64 58 64 61 66 70 70 72 62 61 58 58 53 62
22 20 28 32 32 34 41 36 34 32 32 24 27 12 21 11 12 17 18 24 29 28 30 28 29 31 31 33 37 44 54 60 56 63 66 65 65 67 70 63 71 75 74 69 70 64 67 74 63
30 27 24 31 30 34 38 33 30 13 14 14 7 9 6 12 19 19 21 28 31 35 36 37 35 36 37 38 40 44 50 58 65 71 63 64 68 69 73 68 74 76 80 73 76 67 70 73 65
38 35 27 35 32 36 38 22 18 12 9 16 9 14 16 20 15 20 27 31 35 35 38 39 37 38 39 41 43 43 47 49 56 60 67 70 71 71 67 79 77 80 74 70 68 59 62 58 62
27 33 33 38 42 36 38 51 46 30 35 27 31 16 20 16 19 30 36 37 34 34 35 35 36 34 34 38 41 41 42 46 55 62 62 67 77 69 77 80 79 83 78 72 64 57 57 55 57
36 30 21 20 22 39 30 34 14 19 9 12 15 22 23 17 29 40 43 42 37 34 30 28 27 32 34 34 35 36 34 38 44 50 60 63 67 74 62 81 72 80 74 64 59 61 59 57 59
24 32 34 35 33 21 29 24 23 8 8 19 13 23 23 32 35 43 42 36 35 31 28 26 26 27 29 31 33 34 32 28 27 40 48 54 67 75 83 47 61 64 60 56 59 54 49 49 54
40 42 35 21 22 27 25 27 29 27 32 26 16 30 39 32 35 40 36 35 35 35 31 33 31 31 30 31 33 29 27 25 28 31 34 37 41 42 45 45 44 47 46 46 47 43 44 45 44
Wind_Direction_850mb
314 314 304 272 246 232 255 233 55 179 206 39 309 314 4 19 7 38 128 125 144 155 158 164 169 172 178 181 184 184 183 176 172 163 156 154 157 156 156 157 159 157 153 147 140 136 136 129 129
301 309 286 267 249 247 226 159 186 85 24 249 219 247 229 78 35 93 128 137 146 156 161 168 171 175 179 185 189 192 192 187 183 176 168 165 166 166 168 166 166 162 159 154 146 144 139 134 132
301 278 281 243 239 253 275 84 90 122 198 238 211 318 33 54 64 86 114 138 152 156 162 175 175 177 182 186 189 197 199 195 191 187 183 179 179 177 177 173 172 170 168 161 154 152 148 145 138
274 251 242 256 252 238 287 226 100 222 167 345 329 99 114 61 51 74 137 140 158 162 168 178 180 181 181 185 189 199 199 200 197 195 194 194 195 192 187 184 181 178 176 166 166 165 163 160 148
250 257 253 242 243 259 257 355 164 261 13 70 302 104 107 81 90 113 132 147 162 168 175 193 184 185 186 185 186 193 203 201 202 202 202 203 205 203 198 195 189 190 186 182 181 176 175 172 168
243 237 239 239 240 248 197 256 230 260 212 260 250 217 110 113 100 116 140 151 165 174 177 205 189 189 191 192 190 189 198 206 207 210 213 212 212 210 205 203 199 201 201 198 197 190 183 185 202
251 235 243 254 252 235 201 238 256 261 251 246 82 260 116 122 83 145 160 166 171 176 176 197 194 195 198 199 199 197 199 209 212 218 220 221 223 216 211 208 207 212 216 215 210 205 209 216 223
232 248 265 255 255 252 192 233 243 246 255 315 237 237 205 63 351 209 194 187 181 183 181 185 191 200 202 203 204 207 207 210 216 220 225 227 228 226 219 214 212 212 219 224 224 224 225 235 250
228 255 239 241 248 254 268 246 240 240 273 253 247 265 288 331 318 228 210 204 199 197 194 191 194 199 199 205 210 208 212 214 217 221 225 227 229 232 230 221 219 217 223 227 229 231 237 251 265
224 227 244 260 295 273 269 213 248 220 243 253 250 247 258 264 267 251 220 221 212 211 209 205 197 202 200 204 217 216 214 213 216 221 226 224 220 215 220 234 232 228 225 230 237 241 248 253 273
218 247 247 250 246 269 285 273 254 255 257 257 256 255 251 246 247 250 242 235 223 218 217 212 204 204 201 202 214 214 209 214 218 217 220 221 213 211 216 222 234 230 230 236 243 250 252 260 258
236 242 258 273 255 247 248 248 254 255 265 271 268 261 253 254 253 249 240 242 237 216 213 215 214 204 209 205 213 220 208 215 210 215 218 208 205 210 209 210 222 233 225 230 220 245 245 249 256
223 256 235 255 254 249 264 257 256 255 246 256 258 248 249 250 247 247 248 244 249 231 209 218 217 218 216 201 214 214 212 219 215 216 220 210 209 206 211 210 205 221 212 229 212 221 229 251 273
221 242 258 243 248 241 248 256 248 244 249 245 240 237 248 245 241 246 242 239 240 237 222 218 223 224 231 231 204 225 216 215 218 216 219 227 213 217 214 210 209 210 210 216 221 222 230 255 256
260 252 240 239 243 245 246 257 251 246 235 240 242 246 242 247 243 240 243 236 229 231 230 226 227 226 226 229 234 216 225 220 222 218 224 233 223 215 224 221 217 211 214 211 218 220 235 243 251
240 240 252 240 216 228 226 259 256 210 214 231 237 238 235 240 239 240 238 245 243 238 230 232 227 226 229 234 232 229 229 227 225 227 221 230 236 224 229 218 229 229 226 234 228 230 236 232 236
224 252 229 243 172 247 199 260 225 169 223 233 240 239 237 238 231 242 244 247 251 250 248 242 233 233 234 247 238 238 232 232 230 225 229 236 233 231 226 223 229 230 237 241 238 249 234 231 224
229 218 234 260 187 206 251 242 261 209 238 249 240 244 244 242 243 236 235 254 275 299 282 267 258 239 228 237 248 240 241 236 232 231 229 230 240 231 226 223 211 237 255 252 250 237 228 233 224
287 279 289 275 238 253 267 273 268 253 253 257 250 249 246 248 248 248 248 245 272 295 299 293 281 275 263 243 243 244 244 242 237 234 232 229 233 232 233 223 219 217 234 239 237 219 216 229 218
258 257 259 260 262 254 266 265 268 258 247 251 252 251 248 248 249 252 243 227 267 282 286 288 283 272 265 252 247 241 243 242 239 237 235 231 229 236 236 224 223 229 232 227 225 231 236 229 219
245 254 263 260 273 223 256 264 254 250 244 247 250 254 255 257 259 255 242 271 269 273 281 291 296 289 277 263 243 246 244 241 240 237 237 234 231 231 231 227 217 226 226 225 231 233 233 224 215
246 240 244 259 259 260 255 278 267 273 265 223 224 238 251 262 198 235 268 268 276 283 289 297 299 298 291 287 262 241 243 241 239 240 239 235 236 228 230 226 228 215 227 219 234 228 234 227 213
256 270 276 273 265 270 262 260 264 254 241 230 242 237 226 53 266 257 265 279 285 291 299 301 304 305 299 284 264 257 253 247 246 245 244 238 235 242 230 228 222 226 219 222 212 224 220 220 224
278 258 257 256 257 254 256 256 264 259 258 227 206 184 242 206 266 265 274 287 290 296 300 300 302 302 301 298 284 270 259 243 246 248 243 241 234 233 243 227 228 223 226 216 214 220 233 239 234
223 243 261 254 240 250 248 241 249 290 306 273 218 275 138 204 256 271 282 293 300 298 300 299 298 297 296 295 289 281 273 268 256 243 247 245 238 228 226 234 225 224 228 213 224 227 229 233 228
248 246 257 272 275 285 294 264 279 303 323 252 242 280 264 242 270 296 291 295 298 299 301 301 298 296 294 291 290 284 272 268 262 261 247 246 246 239 234 234 230 222 224 226 226 220 224 226 232
270 256 277 296 281 274 274 280 278 240 191 218 245 212 231 259 291 292 296 299 299 301 301 301 296 297 299 296 295 292 282 268 258 247 249 249 237 241 240 234 229 225 221 226 230 227 229 228 238
271 294 292 266 274 262 258 272 289 352 290 262 248 226 233 259 284 296 300 294 296 299 304 308 303 292 295 302 300 299 289 284 274 264 250 241 237 236 245 231 226 223 225 225 222 224 227 232 233
239 239 239 244 253 261 279 273 301 301 251 288 214 231 256 267 293 302 294 291 293 295 302 309 308 301 297 298 304 307 298 277 278 267 258 247 241 235 229 235 225 222 222 218 220 220 225 237 240
260 268 248 260 265 265 277 270 290 287 269 261 279 274 267 294 299 285 287 293 291 291 295 301 305 306 304 302 299 297 310 294 282 279 257 241 220 213 207 209 205 206 207 207 209 213 222 231 236